Weather History for Kalamazoo, MI

Change the Weather History Date:

Tuesday, March 12, 2013

  Actual Average Record
Temperature  
Mean Temperature 32 °F 35 °F  
Max Temperature 34 °F 43 °F 78 °F (1990)
Min Temperature 30 °F 26 °F 5 °F (1960)
Degree Days  
Heating Degree Days 33 30  
Month to date heating degree days 398 388  
Since 1 July heating degree days 4948 5161  
Cooling Degree Days 0 0  
Month to date cooling degree days 0 0  
Year to date cooling degree days 0 0  
Moisture  
Dew Point 28 °F    
Average Humidity 78    
Maximum Humidity 92    
Minimum Humidity 64    
Precipitation  
Precipitation 0.09 in 0.07 in 0.69 in (1962)
Month to date precipitation 0.38 0.88  
Year to date precipitation 5.04 4.12  
Sea Level Pressure  
Sea Level Pressure 29.84 in    
Wind  
Wind Speed 11 mph (WSW)    
Max Wind Speed 17 mph    
Max Gust Speed 22 mph    
Visibility 4 miles    
Events Fog , Rain , Snow    
T = Trace of Precipitation, MM = Missing Value Source: NWS Daily Summary

Daily Weather History Graph

Daily Weather History Graph

Search for Another Location

Airport:

Trip Planner

Search our weather history database for the weather conditions in past years. The results will help you decide how hot, cold, wet, or windy it might be!

Date:

Astronomy

Mar. 12, 2013 Rise Set
Actual Time 7:58 AM EDT 7:45 PM EDT
Civil Twilight 7:30 AM EDT 8:13 PM EDT
Nautical Twilight 6:58 AM EDT 8:46 PM EDT
Astronomical Twilight 6:25 AM EDT 9:18 PM EDT
Moon 8:03 AM EDT (3/12) 9:02 PM EDT (3/12)
Length of Visible Light 12h 42m
Length of Day
11h 46m
New Moon, 1% of the Moon is Illuminated
Mar 12
New Moon
Mar 19
First Quarter
Mar 27
Full
Apr 3
Last Quarter
Apr 10
New

Hourly Weather History & Observations

Time (EDT) Temp. Windchill Dew Point Humidity Pressure Visibility Wind Dir Wind Speed Gust Speed Precip Events Conditions
12:51 AM 33.8 °F 23.9 °F 30.2 °F 87% 29.72 in 10.0 mi WSW 15.0 mph 21.9 mph N/A   Overcast
12:53 AM 34.0 °F 25.5 °F 30.0 °F 85% 29.74 in 10.0 mi WSW 11.5 mph 21.9 mph N/A   Overcast
1:03 AM 33.8 °F 24.3 °F 30.2 °F 87% 29.72 in 9.0 mi WSW 13.8 mph 23.0 mph N/A   Overcast
1:53 AM 34.0 °F 25.0 °F 30.0 °F 85% 29.75 in 6.0 mi WSW 12.7 mph 20.7 mph 0.00 in Rain Light Rain
2:42 AM 33.8 °F 26.4 °F 30.2 °F 87% 29.75 in 4.0 mi SW 9.2 mph - 0.00 in Snow Light Snow
2:48 AM 33.8 °F 26.4 °F 30.2 °F 87% 29.75 in 1.8 mi WSW 9.2 mph - 0.00 in Snow Light Snow
2:53 AM 33.1 °F 24.9 °F 30.9 °F 92% 29.77 in 1.2 mi WSW 10.4 mph - 0.00 in Snow Light Snow
3:02 AM 33.8 °F 25.3 °F 30.2 °F 87% 29.75 in 1.8 mi WSW 11.5 mph - 0.00 in Snow Light Snow
3:07 AM 33.8 °F 24.8 °F 30.2 °F 87% 29.75 in 3.0 mi WSW 12.7 mph - 0.00 in Snow Light Snow
3:20 AM 33.8 °F 24.8 °F 30.2 °F 87% 29.75 in 5.0 mi WSW 12.7 mph - 0.00 in   Overcast
3:48 AM 33.8 °F 25.3 °F 30.2 °F 87% 29.76 in 2.5 mi WSW 11.5 mph - 0.00 in Snow Light Snow
3:53 AM 33.1 °F 24.4 °F 30.9 °F 92% 29.78 in 2.5 mi West 11.5 mph - 0.00 in Snow Light Snow
3:59 AM 33.8 °F 24.8 °F 30.2 °F 87% 29.76 in 5.0 mi West 12.7 mph 20.7 mph 0.00 in Snow Light Snow
4:53 AM 33.1 °F 23.0 °F 28.0 °F 82% 29.78 in 10.0 mi West 15.0 mph - 0.00 in   Overcast
5:16 AM 33.8 °F 24.3 °F 28.4 °F 81% 29.77 in 1.8 mi West 13.8 mph - 0.00 in Snow Light Snow
5:24 AM 33.8 °F 25.3 °F 30.2 °F 87% 29.78 in 2.0 mi WSW 11.5 mph - 0.00 in Snow Light Snow
5:29 AM 32.0 °F 23.6 °F 30.2 °F 93% 29.78 in 4.0 mi West 10.4 mph - 0.00 in Rain Light Freezing Rain
5:45 AM 33.8 °F 24.3 °F 30.2 °F 87% 29.78 in 8.0 mi West 13.8 mph 19.6 mph 0.00 in   Overcast
5:53 AM 33.1 °F 23.9 °F 30.0 °F 89% 29.81 in 10.0 mi West 12.7 mph - 0.00 in   Overcast
6:01 AM 33.8 °F 25.8 °F 28.4 °F 81% 29.78 in 10.0 mi WSW 10.4 mph - N/A   Overcast
6:24 AM 33.8 °F 24.8 °F 28.4 °F 81% 29.79 in 10.0 mi West 12.7 mph - 0.00 in   Overcast
6:53 AM 33.1 °F 24.9 °F 28.9 °F 85% 29.82 in 10.0 mi West 10.4 mph - 0.00 in   Overcast
7:12 AM 33.8 °F 24.8 °F 28.4 °F 81% 29.80 in 8.0 mi West 12.7 mph - N/A   Overcast
7:53 AM 32.0 °F 21.6 °F 28.9 °F 88% 29.83 in 5.0 mi West 15.0 mph - 0.00 in Rain Light Rain
8:36 AM 32.0 °F 22.1 °F 28.4 °F 87% 29.82 in 5.0 mi West 13.8 mph 19.6 mph 0.00 in Snow Light Snow
8:44 AM 32.0 °F 22.5 °F 28.4 °F 87% 29.82 in 1.5 mi West 12.7 mph 21.9 mph 0.00 in Snow Light Snow
8:53 AM 32.0 °F 24.2 °F 28.9 °F 88% 29.86 in 1.5 mi West 9.2 mph - 0.01 in Snow Light Snow
8:55 AM 32.0 °F 24.8 °F 28.4 °F 87% 29.83 in 1.5 mi WNW 8.1 mph - 0.00 in Snow Light Snow
9:14 AM 30.2 °F 21.3 °F 28.4 °F 93% 29.84 in 3.0 mi West 10.4 mph - 0.01 in Snow Light Snow
9:25 AM 32.0 °F 22.5 °F 28.4 °F 87% 29.84 in 3.0 mi West 12.7 mph - 0.01 in Snow Light Snow
9:34 AM 30.2 °F 23.4 °F 26.6 °F 86% 29.84 in 3.0 mi West 6.9 mph 17.3 mph 0.01 in Snow Light Snow
9:53 AM 30.9 °F 21.7 °F 28.0 °F 89% 29.87 in 3.0 mi West 11.5 mph - 0.01 in Snow Light Snow
9:56 AM 30.2 °F 22.6 °F 28.4 °F 93% 29.84 in 1.5 mi West 8.1 mph - 0.00 in Snow Light Snow
10:35 AM 30.2 °F 22.6 °F 28.4 °F 93% 29.85 in 0.8 mi West 8.1 mph - 0.01 in Snow Light Snow
10:53 AM 30.9 °F 22.8 °F 28.0 °F 89% 29.88 in 0.5 mi WNW 9.2 mph - 0.02 in Fog , Snow Light Snow
11:25 AM 30.2 °F 21.9 °F 28.4 °F 93% 29.85 in 1.5 mi West 9.2 mph - 0.01 in Snow Light Snow
11:53 AM 30.9 °F 22.8 °F 27.0 °F 85% 29.89 in 3.0 mi West 9.2 mph - 0.01 in Snow Light Snow
12:53 PM 30.9 °F 22.8 °F 27.0 °F 85% 29.90 in 3.0 mi West 9.2 mph - 0.01 in Snow Light Snow
1:53 PM 32.0 °F 20.8 °F 25.0 °F 75% 29.91 in 4.0 mi WSW 17.3 mph - 0.00 in   Haze
2:53 PM 32.0 °F 20.8 °F 24.1 °F 73% 29.90 in 10.0 mi WSW 17.3 mph 21.9 mph N/A   Overcast
3:53 PM 33.1 °F 23.9 °F 23.0 °F 66% 29.90 in 10.0 mi West 12.7 mph - N/A   Overcast
4:53 PM 34.0 °F 22.7 °F 23.0 °F 64% 29.91 in 8.0 mi WSW 19.6 mph 23.0 mph 0.00 in Snow Light Snow
5:53 PM 33.1 °F 24.4 °F 21.0 °F 61% 29.92 in 10.0 mi West 11.5 mph - 0.00 in   Overcast
6:21 PM 32.0 °F 20.5 °F 24.8 °F 75% 29.89 in 1.8 mi West 18.4 mph 28.8 mph 0.00 in Snow Light Snow
6:30 PM 32.0 °F 22.5 °F 24.8 °F 75% 29.89 in 3.0 mi WSW 12.7 mph - 0.00 in Snow Light Snow
6:36 PM 32.0 °F 23.6 °F 24.8 °F 75% 29.89 in 9.0 mi WSW 10.4 mph - 0.00 in   Overcast
6:53 PM 32.0 °F 23.0 °F 25.0 °F 75% 29.92 in 3.0 mi WSW 11.5 mph - 0.00 in Snow Light Snow
7:53 PM 32.0 °F 24.8 °F 24.1 °F 73% 29.93 in 10.0 mi West 8.1 mph - 0.00 in   Mostly Cloudy
8:42 PM 30.2 °F 21.9 °F 26.6 °F 86% 29.90 in 2.0 mi WSW 9.2 mph - 0.00 in Snow Light Snow
8:49 PM 30.2 °F 22.6 °F 26.6 °F 86% 29.90 in 3.0 mi SW 8.1 mph - 0.00 in Snow Light Snow
8:53 PM 30.9 °F 24.3 °F 26.1 °F 82% 29.93 in 2.5 mi SW 6.9 mph - 0.00 in Snow Light Snow
9:15 PM 30.2 °F 21.9 °F 28.4 °F 93% 29.90 in 1.8 mi WSW 9.2 mph - 0.00 in Snow Light Snow
9:26 PM 30.2 °F 23.4 °F 28.4 °F 93% 29.90 in 0.8 mi West 6.9 mph - 0.00 in Snow Light Snow
9:34 PM 30.2 °F 24.3 °F 28.4 °F 93% 29.90 in 0.2 mi West 5.8 mph - 0.02 in Fog , Snow Heavy Snow
9:44 PM 30.2 °F 23.4 °F 28.4 °F 93% 29.90 in 0.5 mi WSW 6.9 mph - 0.02 in Fog , Snow Snow
9:50 PM 30.2 °F 22.6 °F 28.4 °F 93% 29.90 in 2.0 mi West 8.1 mph - 0.02 in Snow Light Snow
9:51 PM 30.2 °F 21.9 °F 28.4 °F 93% 29.90 in 2.0 mi West 9.2 mph - N/A Snow Light Snow
9:58 PM 30.2 °F 22.6 °F 26.6 °F 86% 29.90 in 3.0 mi WSW 8.1 mph - 0.00 in Snow Light Snow
10:08 PM 30.2 °F 22.6 °F 26.6 °F 86% 29.90 in 3.0 mi West 8.1 mph - 0.00 in Snow Light Snow
10:53 PM 30.0 °F 22.4 °F 28.0 °F 92% 29.92 in 2.5 mi SW 8.1 mph - 0.00 in Snow Light Snow
11:02 PM 30.2 °F 21.3 °F 28.4 °F 93% 29.89 in 5.0 mi SW 10.4 mph - 0.00 in   Overcast
11:17 PM 30.2 °F 21.3 °F 26.6 °F 86% 29.89 in 6.0 mi SW 10.4 mph - 0.00 in   Overcast
11:24 PM 30.2 °F 20.8 °F 28.4 °F 93% 29.89 in 2.5 mi SW 11.5 mph - 0.00 in Snow Light Snow
11:34 PM 30.2 °F 21.9 °F 28.4 °F 93% 29.89 in 1.8 mi WSW 9.2 mph - 0.00 in Snow Light Snow
11:39 PM 30.2 °F 21.3 °F 28.4 °F 93% 29.89 in 0.8 mi WSW 10.4 mph - 0.01 in Snow Light Snow
11:53 PM 30.0 °F 22.4 °F 28.9 °F 96% 29.92 in 1.5 mi WSW 8.1 mph - 0.01 in Snow Light Snow